Weather History for Grand Rapids, MN

Change the Weather History Date:

Thursday, October 20, 2011

  Actual Average Record
Temperature  
Mean Temperature 37 °F -  
Max Temperature 46 °F 53 °F 79 °F (1953)
Min Temperature 28 °F 31 °F 9 °F (1952)
Degree Days  
Heating Degree Days 28    
Moisture  
Dew Point 28 °F    
Average Humidity 73    
Maximum Humidity 93    
Minimum Humidity 50    
Precipitation  
Precipitation 0.00 in - - ()
Sea Level Pressure  
Sea Level Pressure 30.02 in    
Wind  
Wind Speed 7 mph (NNW)    
Max Wind Speed 15 mph    
Max Gust Speed 21 mph    
Visibility 10 miles    
Events      
Averages and records for this station are not official NWS values.
T = Trace of Precipitation, MM = Missing Value Source: NWS Daily Summary

Daily Weather History Graph

Daily Weather History Graph

Search for Another Location

Airport:

Trip Planner

Search our weather history database for the weather conditions in past years. The results will help you decide how hot, cold, wet, or windy it might be!

Date:

Astronomy

Oct. 20, 2011 Rise Set
Actual Time 7:39 AM CDT 6:17 PM CDT
Civil Twilight 7:08 AM CDT 6:48 PM CDT
Nautical Twilight 6:32 AM CDT 7:24 PM CDT
Astronomical Twilight 5:57 AM CDT 7:59 PM CDT
Moon No Moon Rise 2:52 PM CDT (10/20)
Length of Visible Light 11h 40m
Length of Day
10h 38m
Last Quarter, 44% of the Moon is Illuminated
Oct 20
Last Quarter
Oct 26
New
Nov 2
First Quarter
Nov 10
Full
Nov 18
Last Quarter

Hourly Weather History & Observations

Time (CDT) Temp. Windchill Dew Point Humidity Pressure Visibility Wind Dir Wind Speed Gust Speed Precip Events Conditions
12:15 AM 28.4 °F 24.6 °F 24.8 °F 86% 30.10 in 10.0 mi NW 3.5 mph - N/A   Clear
12:35 AM 28.4 °F 22.2 °F 24.8 °F 86% 30.10 in 10.0 mi NW 5.8 mph - N/A   Clear
12:55 AM 30.2 °F 24.3 °F 26.6 °F 86% 30.09 in 10.0 mi NNW 5.8 mph - N/A   Clear
1:15 AM 30.2 °F 25.4 °F 26.6 °F 86% 30.09 in 10.0 mi NNW 4.6 mph - N/A   Clear
1:35 AM 30.2 °F 24.3 °F 26.6 °F 86% 30.09 in 10.0 mi North 5.8 mph - N/A   Clear
1:55 AM 30.2 °F 25.4 °F 26.6 °F 86% 30.08 in 10.0 mi NNW 4.6 mph - N/A   Clear
2:15 AM 30.2 °F 25.4 °F 26.6 °F 86% 30.08 in 10.0 mi NNW 4.6 mph - N/A   Clear
2:35 AM 30.2 °F 24.3 °F 26.6 °F 86% 30.08 in 10.0 mi NNW 5.8 mph - N/A   Clear
2:55 AM 30.2 °F 24.3 °F 26.6 °F 86% 30.08 in 10.0 mi NNW 5.8 mph - N/A   Clear
3:15 AM 30.2 °F 24.3 °F 26.6 °F 86% 30.08 in 10.0 mi NNW 5.8 mph - N/A   Clear
3:35 AM 30.2 °F 25.4 °F 26.6 °F 86% 30.07 in 10.0 mi NNW 4.6 mph - N/A   Clear
3:55 AM 30.2 °F 23.4 °F 26.6 °F 86% 30.07 in 10.0 mi NNW 6.9 mph - N/A   Clear
4:15 AM 28.4 °F 21.2 °F 26.6 °F 93% 30.06 in 10.0 mi NNW 6.9 mph - N/A   Clear
4:35 AM 30.2 °F 23.4 °F 26.6 °F 86% 30.06 in 10.0 mi NNW 6.9 mph - N/A   Clear
4:55 AM 30.2 °F 24.3 °F 26.6 °F 86% 30.05 in 10.0 mi North 5.8 mph - N/A   Clear
5:15 AM 30.2 °F 23.4 °F 26.6 °F 86% 30.06 in 10.0 mi NNW 6.9 mph - N/A   Clear
5:35 AM 30.2 °F 23.4 °F 26.6 °F 86% 30.05 in 10.0 mi North 6.9 mph - N/A   Clear
5:55 AM 30.2 °F 21.9 °F 26.6 °F 86% 30.05 in 10.0 mi NNW 9.2 mph - N/A   Mostly Cloudy
6:15 AM 33.8 °F 26.4 °F 28.4 °F 81% 30.04 in 10.0 mi North 9.2 mph - N/A   Overcast
6:35 AM 33.8 °F 25.3 °F 28.4 °F 81% 30.04 in 10.0 mi North 11.5 mph - N/A   Overcast
6:55 AM 33.8 °F 26.4 °F 28.4 °F 81% 30.04 in 10.0 mi North 9.2 mph - N/A   Overcast
7:15 AM 33.8 °F 28.6 °F 28.4 °F 81% 30.04 in 10.0 mi NNE 5.8 mph - N/A   Overcast
7:35 AM 33.8 °F 25.8 °F 28.4 °F 81% 30.04 in 10.0 mi North 10.4 mph - N/A   Overcast
7:55 AM 33.8 °F 27.0 °F 28.4 °F 81% 30.04 in 10.0 mi North 8.1 mph - N/A   Overcast
8:15 AM 33.8 °F 27.7 °F 28.4 °F 81% 30.05 in 10.0 mi North 6.9 mph - N/A   Overcast
8:35 AM 33.8 °F 28.6 °F 28.4 °F 81% 30.05 in 10.0 mi North 5.8 mph - N/A   Overcast
8:55 AM 33.8 °F 27.7 °F 28.4 °F 81% 30.04 in 10.0 mi North 6.9 mph - N/A   Overcast
9:15 AM 33.8 °F 26.4 °F 28.4 °F 81% 30.05 in 10.0 mi North 9.2 mph - N/A   Overcast
9:35 AM 35.6 °F 27.5 °F 28.4 °F 75% 30.04 in 10.0 mi North 11.5 mph - N/A   Overcast
9:55 AM 35.6 °F 28.6 °F 28.4 °F 75% 30.04 in 10.0 mi North 9.2 mph - N/A   Overcast
10:15 AM 35.6 °F 27.5 °F 30.2 °F 81% 30.04 in 10.0 mi NNW 11.5 mph - N/A   Overcast
10:35 AM 35.6 °F 28.6 °F 28.4 °F 75% 30.03 in 10.0 mi North 9.2 mph - N/A   Overcast
10:55 AM 37.4 °F 31.4 °F 28.4 °F 70% 30.03 in 10.0 mi North 8.1 mph - N/A   Overcast
11:15 AM 37.4 °F 29.3 °F 30.2 °F 75% 30.02 in 10.0 mi NNW 12.7 mph - N/A   Overcast
11:35 AM 37.4 °F 29.3 °F 30.2 °F 75% 30.02 in 10.0 mi NNW 12.7 mph - N/A   Overcast
11:55 AM 39.2 °F 30.8 °F 30.2 °F 70% 30.01 in 10.0 mi NW 15.0 mph - N/A   Overcast
12:15 PM 39.2 °F 31.2 °F 30.2 °F 70% 30.01 in 10.0 mi NNW 13.8 mph - N/A   Mostly Cloudy
12:35 PM 39.2 °F 32.5 °F 30.2 °F 70% 30.01 in 10.0 mi North 10.4 mph - N/A   Mostly Cloudy
12:55 PM 41.0 °F 35.2 °F 30.2 °F 65% 30.01 in 10.0 mi North 9.2 mph 20.7 mph N/A   Mostly Cloudy
1:15 PM 41.0 °F 34.3 °F 30.2 °F 65% 30.00 in 10.0 mi North 11.5 mph - N/A   Scattered Clouds
1:35 PM 42.8 °F 35.4 °F 30.2 °F 61% 29.99 in 10.0 mi NNW 15.0 mph - N/A   Scattered Clouds
1:55 PM 42.8 °F 36.2 °F 30.2 °F 61% 29.99 in 10.0 mi NNW 12.7 mph 18.4 mph N/A   Scattered Clouds
2:15 PM 44.6 °F 39.2 °F 30.2 °F 57% 29.98 in 10.0 mi NW 10.4 mph - N/A   Partly Cloudy
2:35 PM 44.6 °F 38.1 °F 30.2 °F 57% 29.98 in 10.0 mi NNW 13.8 mph - N/A   Clear
2:55 PM 44.6 °F 39.2 °F 30.2 °F 57% 29.97 in 10.0 mi NW 10.4 mph 17.3 mph N/A   Clear
3:15 PM 46.4 °F 41.1 °F 30.2 °F 53% 29.96 in 10.0 mi North 11.5 mph - N/A   Clear
3:35 PM 46.4 °F 40.4 °F 30.2 °F 53% 29.96 in 10.0 mi NNW 13.8 mph 17.3 mph N/A   Clear
3:55 PM 46.4 °F 40.1 °F 30.2 °F 53% 29.96 in 10.0 mi NNW 15.0 mph 18.4 mph N/A   Clear
4:15 PM 46.4 °F 41.9 °F 30.2 °F 53% 29.95 in 10.0 mi North 9.2 mph - N/A   Clear
4:35 PM 46.4 °F 40.1 °F 30.2 °F 53% 29.95 in 10.0 mi North 15.0 mph 20.7 mph N/A   Clear
4:55 PM 46.4 °F 41.5 °F 30.2 °F 53% 29.95 in 10.0 mi North 10.4 mph 16.1 mph N/A   Clear
5:15 PM 46.4 °F 41.1 °F 30.2 °F 53% 29.95 in 10.0 mi NW 11.5 mph 16.1 mph N/A   Clear
5:35 PM 46.4 °F 42.4 °F 28.4 °F 50% 29.95 in 10.0 mi NNW 8.1 mph - N/A   Clear
5:55 PM 44.6 °F 39.2 °F 28.4 °F 53% 29.95 in 10.0 mi NNW 10.4 mph - N/A   Clear
6:15 PM 42.8 °F 38.6 °F 26.6 °F 53% 29.95 in 10.0 mi NNW 6.9 mph - N/A   Clear
6:35 PM 41.0 °F 39.0 °F 26.6 °F 57% 29.95 in 10.0 mi NW 3.5 mph - N/A   Clear
6:55 PM 41.0 °F 39.0 °F 26.6 °F 57% 29.95 in 10.0 mi WNW 3.5 mph - N/A   Clear
7:15 PM 39.2 °F 35.9 °F 26.6 °F 61% 29.95 in 10.0 mi NW 4.6 mph - N/A   Clear
7:35 PM 37.4 °F 33.8 °F 26.6 °F 65% 29.95 in 10.0 mi NW 4.6 mph - N/A   Clear
7:55 PM 39.2 °F 37.0 °F 28.4 °F 65% 29.95 in 10.0 mi NW 3.5 mph - N/A   Clear
8:15 PM 39.2 °F 37.0 °F 28.4 °F 65% 29.96 in 10.0 mi NNW 3.5 mph - N/A   Clear
8:35 PM 37.4 °F - 26.6 °F 65% 29.96 in 10.0 mi Calm Calm - N/A   Clear
8:55 PM 33.8 °F - 24.8 °F 70% 29.96 in 10.0 mi Calm Calm - N/A   Clear
9:15 PM 33.8 °F - 26.6 °F 75% 29.96 in 10.0 mi Calm Calm - N/A   Clear
9:35 PM 32.0 °F - 24.8 °F 75% 29.96 in 10.0 mi Calm Calm - N/A   Clear
9:55 PM 32.0 °F - 24.8 °F 75% 29.96 in 10.0 mi Calm Calm - N/A   Clear
10:15 PM 30.2 °F - 24.8 °F 80% 29.96 in 10.0 mi Calm Calm - N/A   Clear
10:35 PM 30.2 °F - 24.8 °F 80% 29.96 in 10.0 mi Calm Calm - N/A   Clear
10:55 PM 28.4 °F - 24.8 °F 86% 29.97 in 10.0 mi Calm Calm - N/A   Clear
11:15 PM 28.4 °F - 24.8 °F 86% 29.97 in 10.0 mi Calm Calm - N/A   Clear
11:35 PM 30.2 °F - 24.8 °F 80% 29.97 in 10.0 mi Calm Calm - N/A   Clear
11:55 PM 28.4 °F - 21.2 °F 74% 29.97 in 10.0 mi Calm Calm - N/A   Clear